| time (UTC) | temp C | wind direction | speed KPH | gust KPH | rain 1hr cm | rain 24hr cm | rain mn cm | humidity % | barometer mb |
| 20260506201519 | 13 | 193 | 3.2 | 14.5 | 0.03 | 0.18 | 0.18 | 91 | 1008.3 |
| 20260506200012 | 13 | 177 | 1.6 | 9.7 | 0.05 | 0.18 | 0.18 | 90 | 1008.2 |
| 20260506194511 | 13 | 175 | 4.8 | 11.3 | 0.10 | 0.15 | 0.15 | 90 | 1008.4 |
| 20260506193007 | 13 | 154 | 0.0 | 6.4 | 0.15 | 0.15 | 0.15 | 91 | 1008.7 |
| 20260506191507 | 13 | 238 | 3.2 | 11.3 | 0.15 | 0.15 | 0.15 | 89 | 1008.9 |
| 20260506190005 | 13 | 213 | 3.2 | 11.3 | 0.13 | 0.13 | 0.13 | 89 | 1008.8 |
| 20260506184502 | 14 | 173 | 6.4 | 17.7 | 0.05 | 0.05 | 0.05 | 88 | 1009.1 |
| 20260506183111 | 14 | 182 | 3.2 | 17.7 | 0.00 | 0.00 | 0.00 | 85 | 1009.2 |
| 20260506181601 | 15 | 321 | 3.2 | 11.3 | 0.00 | 0.00 | 0.00 | 82 | 1009.5 |
| 20260506180057 | 15 | 200 | 3.2 | 12.9 | 0.00 | 0.00 | 0.00 | 80 | 1009.9 |
| 20260506174608 | 15 | 317 | 1.6 | 9.7 | 0.00 | 0.00 | 0.00 | 79 | 1010.0 |
| 20260506173057 | 16 | 273 | 0.0 | 8.0 | 0.00 | 0.00 | 0.00 | 77 | 1010.2 |
| 20260506171602 | 16 | 248 | 1.6 | 6.4 | 0.00 | 0.00 | 0.00 | 78 | 1010.1 |
| 20260506170052 | 16 | 191 | 4.8 | 14.5 | 0.00 | 0.00 | 0.00 | 77 | 1010.5 |
| 20260506164557 | 16 | 165 | 1.6 | 11.3 | 0.00 | 0.00 | 0.00 | 75 | 1010.5 |
| 20260506163104 | 16 | 193 | 4.8 | 16.1 | 0.00 | 0.00 | 0.00 | 75 | 1010.5 |
| 20260506161549 | 17 | 270 | 1.6 | 14.5 | 0.00 | 0.00 | 0.00 | 75 | 1010.9 |
| 20260506160051 | 16 | 166 | 4.8 | 24.1 | 0.00 | 0.00 | 0.00 | 76 | 1011.1 |
| 20260506154552 | 17 | 264 | 9.7 | 30.6 | 0.00 | 0.00 | 0.00 | 75 | 1011.3 |
| 20260506153050 | 17 | 189 | 8.0 | 22.5 | 0.00 | 0.00 | 0.00 | 75 | 1011.3 |
| 20260506151547 | 17 | 329 | 4.8 | 22.5 | 0.00 | 0.00 | 0.00 | 73 | 1011.2 |
| 20260506150045 | 17 | 205 | 6.4 | 20.9 | 0.00 | 0.00 | 0.00 | 73 | 1011.2 |
| 20260506144545 | 17 | 169 | 9.7 | 27.4 | 0.00 | 0.00 | 0.00 | 74 | 1011.2 |
| 20260506143042 | 16 | 285 | 4.8 | 20.9 | 0.00 | 0.00 | 0.00 | 77 | 1011.5 |
| 20260506141541 | 16 | 208 | 3.2 | 20.9 | 0.00 | 0.00 | 0.00 | 76 | 1011.3 |
| 20260506140041 | 16 | 34 | 8.0 | 25.7 | 0.00 | 0.00 | 0.00 | 76 | 1011.2 |
| 20260506134540 | 16 | 315 | 4.8 | 19.3 | 0.00 | 0.00 | 0.00 | 77 | 1011.1 |
| 20260506133041 | 17 | 239 | 1.6 | 19.3 | 0.00 | 0.00 | 0.00 | 76 | 1010.9 |
| 20260506131538 | 16 | 248 | 4.8 | 16.1 | 0.00 | 0.00 | 0.00 | 77 | 1011.2 |
| 20260506130038 | 16 | 197 | 9.7 | 24.1 | 0.00 | 0.00 | 0.00 | 77 | 1011.5 |
| 20260506124532 | 16 | 271 | 3.2 | 19.3 | 0.00 | 0.00 | 0.00 | 78 | 1011.5 |
| 20260506123031 | 16 | 256 | 3.2 | 17.7 | 0.00 | 0.00 | 0.00 | 79 | 1011.5 |
| 20260506121530 | 15 | 201 | 4.8 | 16.1 | 0.00 | 0.00 | 0.00 | 80 | 1011.6 |
| 20260506120028 | 15 | 226 | 4.8 | 17.7 | 0.00 | 0.00 | 0.00 | 81 | 1011.4 |
| 20260506114525 | 15 | 183 | 4.8 | 19.3 | 0.00 | 0.00 | 0.00 | 82 | 1011.5 |
| 20260506113025 | 15 | 171 | 4.8 | 17.7 | 0.00 | 0.00 | 0.00 | 82 | 1011.5 |
| 20260506111528 | 14 | 251 | 3.2 | 14.5 | 0.00 | 0.00 | 0.00 | 83 | 1011.5 |
| 20260506110022 | 14 | 274 | 3.2 | 16.1 | 0.00 | 0.00 | 0.00 | 85 | 1011.7 |
| 20260506104522 | 13 | 163 | 1.6 | 16.1 | 0.00 | 0.00 | 0.00 | 86 | 1011.4 |
| 20260506103020 | 13 | 267 | 4.8 | 16.1 | 0.00 | 0.00 | 0.00 | 86 | 1011.5 |
| 20260506101519 | 13 | 208 | 4.8 | 9.7 | 0.00 | 0.00 | 0.00 | 86 | 1011.5 |
| 20260506100017 | 13 | 199 | 4.8 | 14.5 | 0.00 | 0.00 | 0.00 | 86 | 1011.3 |
| 20260506094517 | 13 | 297 | 4.8 | 14.5 | 0.00 | 0.00 | 0.00 | 87 | 1011.2 |
| 20260506093014 | 13 | 265 | 3.2 | 11.3 | 0.00 | 0.00 | 0.00 | 87 | 1011.3 |
| 20260506091514 | 13 | 251 | 3.2 | 14.5 | 0.00 | 0.00 | 0.00 | 87 | 1011.3 |
| 20260506090011 | 13 | 205 | 3.2 | 12.9 | 0.00 | 0.00 | 0.00 | 86 | 1011.4 |
| 20260506084510 | 13 | 176 | 3.2 | 17.7 | 0.00 | 0.00 | 0.00 | 86 | 1011.5 |
| 20260506083015 | 13 | 255 | 3.2 | 8.0 | 0.00 | 0.00 | 0.00 | 85 | 1011.5 |
| 20260506081508 | 13 | 196 | 1.6 | 16.1 | 0.00 | 0.00 | 0.00 | 85 | 1011.5 |
| 20260506073005 | 13 | 227 | 1.6 | 12.9 | 0.00 | 0.00 | 0.00 | 84 | 1011.8 |
| 20260506071503 | 13 | 252 | 1.6 | 12.9 | 0.00 | 0.00 | 0.00 | 84 | 1011.7 |
| 20260506061554 | 13 | 197 | 4.8 | 14.5 | 0.00 | 0.00 | 0.00 | 84 | 1012.1 |
| 20260506050103 | 14 | 283 | 3.2 | 12.9 | 0.00 | 0.00 | 0.00 | 81 | 1012.5 |
| 20260506044545 | 14 | 254 | 1.6 | 11.3 | 0.00 | 0.00 | 0.00 | 80 | 1012.6 |
| 20260506043040 | 14 | 252 | 1.6 | 9.7 | 0.00 | 0.00 | 0.00 | 79 | 1012.6 |
| 20260506041552 | 15 | 339 | 3.2 | 12.9 | 0.00 | 0.00 | 0.00 | 79 | 1012.6 |
| 20260506040035 | 15 | 234 | 4.8 | 24.1 | 0.00 | 0.00 | 0.00 | 78 | 1012.5 |
| 20260506034548 | 15 | 293 | 3.2 | 19.3 | 0.00 | 0.00 | 0.00 | 78 | 1012.7 |
| 20260506033033 | 14 | 266 | 4.8 | 12.9 | 0.00 | 0.00 | 0.00 | 78 | 1012.5 |
| 20260506031533 | 14 | 194 | 1.6 | 9.7 | 0.00 | 0.00 | 0.00 | 77 | 1012.3 |
| 20260506030036 | 15 | 249 | 3.2 | 9.7 | 0.00 | 0.00 | 0.00 | 76 | 1012.3 |
| 20260506024533 | 15 | 319 | 1.6 | 11.3 | 0.00 | 0.00 | 0.00 | 76 | 1012.4 |
| 20260506023030 | 15 | 272 | 1.6 | 8.0 | 0.00 | 0.00 | 0.00 | 76 | 1012.2 |
| 20260506021529 | 15 | 284 | 3.2 | 9.7 | 0.00 | 0.00 | 0.00 | 75 | 1012.3 |
| 20260506020027 | 15 | 289 | 1.6 | 4.8 | 0.00 | 0.00 | 0.00 | 75 | 1012.2 |
| 20260506014527 | 15 | 336 | 3.2 | 16.1 | 0.00 | 0.00 | 0.00 | 74 | 1012.1 |
| 20260506013037 | 15 | 268 | 3.2 | 11.3 | 0.00 | 0.00 | 0.00 | 74 | 1012.0 |
| 20260506011527 | 15 | 244 | 4.8 | 14.5 | 0.00 | 0.00 | 0.00 | 74 | 1011.6 |
| 20260506010027 | 14 | 216 | 3.2 | 9.7 | 0.00 | 0.00 | 0.00 | 75 | 1011.7 |
| 20260506004523 | 15 | 266 | 4.8 | 11.3 | 0.00 | 0.00 | 0.00 | 75 | 1011.5 |
| 20260506003024 | 15 | 118 | 4.8 | 16.1 | 0.00 | 0.00 | 0.00 | 74 | 1011.2 |
| 20260506001523 | 15 | 291 | 1.6 | 11.3 | 0.00 | 0.00 | 0.00 | 74 | 1010.9 |
| 20260506000023 | 15 | 322 | 6.4 | 25.7 | 0.00 | 0.00 | 0.00 | 74 | 1010.6 |
| 20260505234522 | 15 | 199 | 1.6 | 11.3 | 0.00 | 0.00 | 0.00 | 74 | 1010.2 |
| 20260505233026 | 15 | 149 | 1.6 | 9.7 | 0.00 | 0.00 | 0.00 | 74 | 1010.3 |
| 20260505231523 | 15 | 106 | 1.6 | 12.9 | 0.00 | 0.00 | 0.00 | 73 | 1010.9 |
| 20260505230020 | 15 | 283 | 1.6 | 8.0 | 0.00 | 0.00 | 0.00 | 72 | 1010.7 |
| 20260505224520 | 16 | 293 | 4.8 | 17.7 | 0.00 | 0.00 | 0.00 | 70 | 1010.6 |
| 20260505223019 | 16 | 140 | 4.8 | 16.1 | 0.00 | 0.00 | 0.00 | 69 | 1010.4 |
| 20260505221519 | 16 | 153 | 6.4 | 14.5 | 0.00 | 0.00 | 0.00 | 68 | 1010.2 |
| 20260505220030 | 16 | 308 | 3.2 | 17.7 | 0.00 | 0.00 | 0.00 | 67 | 1010.2 |
| 20260505214522 | 17 | 300 | 3.2 | 9.7 | 0.00 | 0.00 | 0.00 | 67 | 1010.4 |
| 20260505213017 | 17 | 81 | 1.6 | 12.9 | 0.00 | 0.00 | 0.00 | 65 | 1010.5 |
| 20260505211516 | 18 | 198 | 4.8 | 12.9 | 0.00 | 0.00 | 0.00 | 63 | 1010.0 |
| 20260505210015 | 18 | 286 | 6.4 | 14.5 | 0.00 | 0.00 | 0.00 | 64 | 1010.1 |
| 20260505204514 | 18 | 175 | 4.8 | 14.5 | 0.00 | 0.00 | 0.00 | 63 | 1009.9 |
| 20260505203014 | 19 | 313 | 4.8 | 16.1 | 0.00 | 0.00 | 0.00 | 61 | 1009.9 |